This is the latest recevied weather packets stored in our database for station/object KJ5FA-9. If no packets are shown the sender has not sent any weather packets the latest 10 day(s).
| Time | Temp. | Humidity | Pressure | Rain* | Wind** | Luminosity | Snow |
|---|---|---|---|---|---|---|---|
| 1788358758 | 28.33° C | 70% | 1019 hPa | 0 mm | - | - | - |
| 1788357366 | 27.22° C | 74% | 1019.1 hPa | 0 mm | 0 m/s | - | - |
| 1788357258 | 27.22° C | 75% | 1019 hPa | 0 mm | - | - | - |
| 1788355758 | 25.56° C | 82% | 1019 hPa | 0 mm | - | - | - |
| 1788355566 | 25.56° C | 83% | 1019.1 hPa | 0 mm | 0.45 m/s, 330° | - | - |
| 1788354258 | 24.44° C | 89% | 1019.4 hPa | 0 mm | - | - | - |
| 1788353766 | 23.89° C | 92% | 1019.1 hPa | 0 mm | 0 m/s | - | - |
| 1788352758 | 23.33° C | 94% | 1018.9 hPa | 0 mm | - | - | - |
| 1788351966 | 23.33° C | 94% | 1019 hPa | 0 mm | 0.45 m/s, 240° | - | - |
| 1788351258 | 22.78° C | 94% | 1018.7 hPa | 0 mm | - | - | - |
| 1788350166 | 22.78° C | 94% | 1018.6 hPa | 0 mm | 1.34 m/s, 13° | - | - |
| 1788349758 | 22.78° C | 93% | 1018.6 hPa | 0 mm | - | - | - |
| 1788348366 | 22.78° C | 93% | 1018.4 hPa | 0 mm | 0.45 m/s, 2° | - | - |
| 1788348258 | 23.33° C | 93% | 1018.4 hPa | 0 mm | - | - | - |
| 1788346758 | 23.33° C | 93% | 1018.2 hPa | 0 mm | - | - | - |
| 1788346566 | 23.33° C | 93% | 1018.1 hPa | 0 mm | 0 m/s | - | - |
| 1788345258 | 23.33° C | 92% | 1018 hPa | 0 mm | - | - | - |
| 1788344766 | 23.33° C | 92% | 1018.1 hPa | 0 mm | 0.45 m/s, 343° | - | - |
| 1788343758 | 23.33° C | 92% | 1018.1 hPa | 0 mm | - | - | - |
| 1788342966 | 23.89° C | 92% | 1018 hPa | 0 mm | 0.45 m/s, 332° | - | - |
| 1788342261 | 23.89° C | 92% | 1017.9 hPa | 0 mm | - | - | - |
| 1788341166 | 23.89° C | 91% | 1018 hPa | 0 mm | 0 m/s | - | - |
| 1788340758 | 23.89° C | 91% | 1017.7 hPa | 0 mm | - | - | - |
| 1788339366 | 23.89° C | 90% | 1017.7 hPa | 0 mm | 1.34 m/s, 37° | - | - |
| 1788339258 | 23.89° C | 90% | 1017.7 hPa | 0 mm | - | - | - |
* Rain latest hour (hover to see other rain measurements)
** Current wind speed in m/s (hover to see current wind gust speed)